ATLAS 5 CENTAUR DEB, 44040

Orbit data source: Space-Track

ATLAS 5 CENTAUR DEB, 44040 is space debris in HEO originally from a launch on Wed, 17 Sep 2014 UTC launched from the Air Force Eastern Test Range (AFETR). Debris objects in space refer to the collection of defunct objects orbiting the Earth. Examples of debris include non-operational satellites, rocket bodies, and fragments generated from explosions, collisions, or faulty payload assembly.

Loading next visibility...
Identifier
44040, 2014-055CA
Orbit
HEO
Country
Flag of USUS
Related business
Flag of USUnited Launch Alliance/Lockheed Martin (US)
Manufacturer
Unknown
Mission
Spacecraft
Bus & Motor
Unknown
Mass
Unknown
Launch date (UTC)
2014-09-17 (12 years ago)
Launch vehicle
Unknown
Launch site
Air Force Eastern Test Range (AFETR)
Object type
Payload
Rocket body
Debris
Shape & HBR
Unknown shape, 1.1 m
Radar Cross Section
Small (<0.1 m²)

Expand to show TLE details & history
Last TLE update: 5 days ago

TLE from 5 days ago
0 ATLAS 5 CENTAUR DEB
1 44040U 14055CA  26097.98163656 -.00000068  00000-0  00000-0 0  9990
2 44040  20.2687 141.9586 4779566 169.3807 206.1623  1.88070198 50536
Epoch: 2026-04-07T23:33Z
TLE epoch observation values (Epoch: 2026-04-07T23:33:33.398Z)
Latitude
0.00001°
Longitude
-47.64308°
Altitude
33,950.004 km
Speed
2.322 km/s
True Right ascension
09h 27m 59s
True Declination
0° 00' 00"
Sunlit
Object was in daylight at epoch
Visualization orbit readout
Latitude
Unknown
Longitude
Unknown
Altitude
Unknown
Speed
Unknown
Apparent Right ascension
Unknown
Apparent Declination
Unknown
Sunlit
N/A
Visualization observer readout
Local Sidereal Time
18:58:48
Azimuth
Unknown
Elevation
Unknown
Doppler factor
Unknown
Orbital elements
Apogee altitude
34,599.531 km
Perigee altitude
8,095.983 km
Semi-major axis
27,725.894 km
Eccentricity
0.47796
Inclination
20.2687°
RAAN
141.9586°
Arg. of periapsis
169.3807°
True anomaly
190.63044°
Mean anomaly
206.1623°
Eccentric anomaly
197.79372°
Mean motion
0.47013 °/min
Orbital period
765.75 mins
BSTAR
0
Loading maneuver chart data...
Computing Atmospheric mass density...

Documentation

Showing up to 5 results
|